This is the latest recevied weather packets stored in our database for station/object W0VI. If no packets are shown the sender has not sent any weather packets the latest 10 day(s).
| Time | Temp. | Humidity | Pressure | Rain* | Wind** | Luminosity | Snow |
|---|---|---|---|---|---|---|---|
| 1787419817 | 23.33° C | 60% | 1020.6 hPa | 0 mm | - | 320 W/m² | - |
| 1787419512 | 23.33° C | 59% | 1020.5 hPa | 0 mm | - | 235 W/m² | - |
| 1787419208 | 23.89° C | 59% | 1020.5 hPa | 0 mm | - | 658 W/m² | - |
| 1787418903 | 23.89° C | 57% | 1020.7 hPa | 0 mm | - | 663 W/m² | - |
| 1787418599 | 23.89° C | 59% | 1020.7 hPa | 0 mm | - | 646 W/m² | - |
| 1787418295 | 23.33° C | 59% | 1020.7 hPa | 0 mm | - | 184 W/m² | - |
| 1787417990 | 23.89° C | 58% | 1020.8 hPa | 0 mm | - | 206 W/m² | - |
| 1787417687 | 23.89° C | 58% | 1020.6 hPa | 0 mm | - | 645 W/m² | - |
| 1787417386 | 23.33° C | 56% | 1020.7 hPa | 0 mm | - | 642 W/m² | - |
| 1787417081 | 23.33° C | 58% | 1020.5 hPa | 0 mm | - | 656 W/m² | - |
| 1787416778 | 23.33° C | 56% | 1020.4 hPa | 0 mm | - | 663 W/m² | - |
| 1787416474 | 23.33° C | 58% | 1020.4 hPa | 0 mm | - | 650 W/m² | - |
| 1787416167 | 23.33° C | 59% | 1020.5 hPa | 0 mm | - | 638 W/m² | - |
| 1787415864 | 23.33° C | 59% | 1020.4 hPa | 0 mm | - | 639 W/m² | - |
| 1787415562 | 23.33° C | 59% | 1020.4 hPa | 0 mm | - | 614 W/m² | - |
| 1787415252 | 22.78° C | 61% | 1020.2 hPa | 0 mm | - | 615 W/m² | - |
| 1787414948 | 22.78° C | 61% | 1020.3 hPa | 0 mm | - | 639 W/m² | - |
| 1787414643 | 22.78° C | 60% | 1020.3 hPa | 0 mm | - | 636 W/m² | - |
| 1787414342 | 22.78° C | 62% | 1020.5 hPa | 0 mm | - | 642 W/m² | - |
| 1787414036 | 22.78° C | 64% | 1020.4 hPa | 0 mm | - | 601 W/m² | - |
| 1787413731 | 22.78° C | 63% | 1020.2 hPa | 0 mm | - | 596 W/m² | - |
| 1787413430 | 22.22° C | 66% | 1020.3 hPa | 0 mm | - | 614 W/m² | - |
| 1787413122 | 22.22° C | 64% | 1020.4 hPa | 0 mm | - | 589 W/m² | - |
| 1787412817 | 22.22° C | 65% | 1020.2 hPa | 0 mm | - | 573 W/m² | - |
| 1787412516 | 22.22° C | 66% | 1020.5 hPa | 0 mm | - | 567 W/m² | - |
* Rain latest hour (hover to see other rain measurements)
** Current wind speed in m/s (hover to see current wind gust speed)